Waarnemingen

Advertentie
Mijn weer
Civitavecchia, Italië (16214): temperatuur & dauwpunt: 08.08.2018 15:00:00 - 14.08.2018 15:00:00 (CEST)Civitavecchia, Italië (16214): windsnelheid: 08.08.2018 15:00:00 - 14.08.2018 15:00:00 (CEST)Civitavecchia, Italië (16214): windrichting: 08.08.2018 15:00:00 - 14.08.2018 15:00:00 (CEST)Civitavecchia, Italië (16214): luchtdruk: 08.08.2018 15:00:00 - 14.08.2018 15:00:00 (CEST)Civitavecchia, Italië (16214): zicht: 08.08.2018 15:00:00 - 14.08.2018 15:00:00 (CEST)Civitavecchia, Italië (16214): Zonneschijnduur: 08.08.2018 15:00:00 - 14.08.2018 15:00:00 (CEST)
Datum & Tijd tt [°C] td [°C] ff [km/u] ff [kn] dd ppp [hPa] vv [km] sd [min]
14.08.2018 15:00:00 - - - - - - - -
14.08.2018 14:00:00 26,7 17,3 21 11 O 1012,0 12 48
14.08.2018 13:00:00 - - - - - - - -
14.08.2018 12:00:00 - - - - - - - -
14.08.2018 11:00:00 27,0 18,5 15 8 Z 1013,0 15 21
14.08.2018 10:00:00 - - - - - - - -
14.08.2018 09:00:00 - - - - - - - -
14.08.2018 08:00:00 27,0 23,0 9 5 OZO 1012,6 18 12
14.08.2018 07:00:00 - - - - - - - -
14.08.2018 06:00:00 - - - - - - - -
14.08.2018 05:00:00 25,5 19,2 8 4 OZO 1012,2 - 0
14.08.2018 04:00:00 - - - - - - - -
14.08.2018 03:00:00 - - - - - - - -
14.08.2018 02:00:00 26,4 21,9 5 3 ONO 1013,0 - 0
14.08.2018 01:00:00 - - - - - - - -
14.08.2018 00:00:00 - - - - - - - -
13.08.2018 23:00:00 27,4 22,6 9 5 WZW 1013,1 - 0
13.08.2018 22:00:00 - - - - - - - -
13.08.2018 21:00:00 - - - - - - - -
13.08.2018 20:00:00 27,9 23,3 13 7 ZW 1012,5 20 36
13.08.2018 19:00:00 - - - - - - - -
13.08.2018 18:00:00 - - - - - - - -
13.08.2018 17:00:00 29,7 23,0 9 5 Z 1013,6 20 60
13.08.2018 16:00:00 - - - - - - - -
13.08.2018 15:00:00 - - - - - - - -
13.08.2018 14:00:00 30,1 22,3 11 6 Z 1014,7 20 60
13.08.2018 13:00:00 - - - - - - - -
13.08.2018 12:00:00 - - - - - - - -
13.08.2018 11:00:00 29,2 21,7 11 6 ZZO 1015,8 20 60
13.08.2018 10:00:00 - - - - - - - -
13.08.2018 09:00:00 - - - - - - - -
13.08.2018 08:00:00 26,5 20,0 5 3 OZO 1014,9 20 60
13.08.2018 07:00:00 - - - - - - - -
13.08.2018 06:00:00 - - - - - - - -
13.08.2018 05:00:00 23,9 19,1 5 3 ONO 1014,6 - 0
13.08.2018 04:00:00 - - - - - - - -
13.08.2018 03:00:00 - - - - - - - -
13.08.2018 02:00:00 24,3 20,1 5 3 O 1015,6 - 0
13.08.2018 01:00:00 - - - - - - - -
13.08.2018 00:00:00 - - - - - - - -
12.08.2018 23:00:00 26,5 21,5 9 5 WNW 1016,1 - 0
12.08.2018 22:00:00 - - - - - - - -
12.08.2018 21:00:00 - - - - - - - -
12.08.2018 20:00:00 27,7 23,0 11 6 WNW 1015,2 - 60
12.08.2018 19:00:00 - - - - - - - -
12.08.2018 18:00:00 - - - - - - - -
12.08.2018 17:00:00 29,7 23,8 11 6 ZW 1016,1 - 60
12.08.2018 16:00:00 - - - - - - - -
12.08.2018 15:00:00 - - - - - - - -
12.08.2018 14:00:00 30,2 22,3 13 7 ZZW 1017,1 - 60
12.08.2018 13:00:00 - - - - - - - -
12.08.2018 12:00:00 - - - - - - - -
12.08.2018 11:00:00 27,9 18,4 5 3 ZZW 1017,5 - 60
12.08.2018 10:00:00 - - - - - - - -
12.08.2018 09:00:00 - - - - - - - -
12.08.2018 08:00:00 26,6 18,8 5 3 ZO 1016,9 - 60
12.08.2018 07:00:00 - - - - - - - -
12.08.2018 06:00:00 - - - - - - - -
12.08.2018 05:00:00 23,0 16,8 4 2 O 1016,2 - 0
12.08.2018 04:00:00 - - - - - - - -
12.08.2018 03:00:00 - - - - - - - -
12.08.2018 02:00:00 25,0 21,4 8 4 NNW 1017,1 - 0
12.08.2018 01:00:00 - - - - - - - -
12.08.2018 00:00:00 - - - - - - - -
11.08.2018 23:00:00 26,7 22,0 16 9 NNW 1017,5 - 0
11.08.2018 22:00:00 - - - - - - - -
11.08.2018 21:00:00 - - - - - - - -
11.08.2018 20:00:00 27,9 23,1 22 12 NW 1016,6 - 60
11.08.2018 19:00:00 - - - - - - - -
11.08.2018 18:00:00 - - - - - - - -
11.08.2018 17:00:00 30,2 22,5 16 9 WNW 1017,5 - 60
11.08.2018 16:00:00 - - - - - - - -
11.08.2018 15:00:00 - - - - - - - -
11.08.2018 14:00:00 29,8 20,8 13 7 W 1018,5 - 60
11.08.2018 13:00:00 - - - - - - - -
11.08.2018 12:00:00 - - - - - - - -
11.08.2018 11:00:00 28,7 20,7 5 3 WZW 1019,2 - 60
11.08.2018 10:00:00 - - - - - - - -
11.08.2018 09:00:00 - - - - - - - -
11.08.2018 08:00:00 25,9 18,1 4 2 NNW 1019,1 - 60
11.08.2018 07:00:00 - - - - - - - -
11.08.2018 06:00:00 - - - - - - - -
11.08.2018 05:00:00 23,9 19,6 2 1 NW 1018,6 - 0
11.08.2018 04:00:00 - - - - - - - -
11.08.2018 03:00:00 - - - - - - - -
11.08.2018 02:00:00 26,5 21,4 24 13 NW 1019,3 - 0
11.08.2018 01:00:00 - - - - - - - -
11.08.2018 00:00:00 - - - - - - - -
10.08.2018 23:00:00 27,4 21,6 18 10 NNW 1019,5 - 0
10.08.2018 22:00:00 - - - - - - - -
10.08.2018 21:00:00 - - - - - - - -
10.08.2018 20:00:00 28,4 22,7 16 9 NW 1018,9 18 48
10.08.2018 19:00:00 - - - - - - - -
10.08.2018 18:00:00 - - - - - - - -
10.08.2018 17:00:00 29,6 24,0 18 10 NNW 1018,8 15 60
10.08.2018 16:00:00 - - - - - - - -
10.08.2018 15:00:00 - - - - - - - -
10.08.2018 14:00:00 30,1 23,2 21 11 WNW 1019,7 18 54
10.08.2018 13:00:00 - - - - - - - -
10.08.2018 12:00:00 - - - - - - - -
10.08.2018 11:00:00 29,2 22,3 11 6 NW 1019,9 18 60
10.08.2018 10:00:00 - - - - - - - -
10.08.2018 09:00:00 - - - - - - - -
10.08.2018 08:00:00 26,8 22,0 5 3 NW 1019,0 15 48
10.08.2018 07:00:00 - - - - - - - -
10.08.2018 06:00:00 - - - - - - - -
10.08.2018 05:00:00 25,1 20,9 5 3 NNW 1017,5 - 0
10.08.2018 04:00:00 - - - - - - - -
10.08.2018 03:00:00 - - - - - - - -
10.08.2018 02:00:00 26,1 22,2 9 5 NNW 1018,1 - 0
10.08.2018 01:00:00 - - - - - - - -
10.08.2018 00:00:00 - - - - - - - -
09.08.2018 23:00:00 27,3 22,8 15 8 NNW 1017,8 - 0
09.08.2018 22:00:00 - - - - - - - -
09.08.2018 21:00:00 - - - - - - - -
09.08.2018 20:00:00 28,2 22,9 21 11 NW 1016,6 15 60
09.08.2018 19:00:00 - - - - - - - -
09.08.2018 18:00:00 - - - - - - - -
09.08.2018 17:00:00 29,6 23,2 18 10 W 1016,0 15 60
09.08.2018 16:00:00 - - - - - - - -
09.08.2018 15:00:00 - - - - - - - -
09.08.2018 14:00:00 29,0 23,5 15 8 W 1016,8 18 60
09.08.2018 13:00:00 - - - - - - - -
09.08.2018 12:00:00 - - - - - - - -
09.08.2018 11:00:00 28,0 23,3 11 6 ZZW 1016,9 18 60
09.08.2018 10:00:00 - - - - - - - -
09.08.2018 09:00:00 - - - - - - - -
09.08.2018 08:00:00 26,1 22,4 4 2 OZO 1016,5 12 12
09.08.2018 07:00:00 - - - - - - - -
09.08.2018 06:00:00 - - - - - - - -
09.08.2018 05:00:00 25,1 22,4 5 3 OZO 1015,6 - 0
09.08.2018 04:00:00 - - - - - - - -
09.08.2018 03:00:00 - - - - - - - -
09.08.2018 02:00:00 25,8 22,2 4 2 N 1015,7 - 0
09.08.2018 01:00:00 - - - - - - - -
09.08.2018 00:00:00 - - - - - - - -
08.08.2018 23:00:00 26,2 21,2 4 2 ZZO 1015,7 - 0
08.08.2018 22:00:00 - - - - - - - -
08.08.2018 21:00:00 - - - - - - - -
08.08.2018 20:00:00 28,4 23,3 11 6 WNW 1014,8 15 60
08.08.2018 19:00:00 - - - - - - - -
08.08.2018 18:00:00 - - - - - - - -
08.08.2018 17:00:00 30,1 23,4 13 7 NW 1015,0 20 60
08.08.2018 16:00:00 - - - - - - - -
08.08.2018 15:00:00 - - - - - - - -

tt = temperatuur
td = dauwpunt
ff = windsnelheid
dd = windrichting
ppp = luchtdruk
vv = zicht
sd = Zonneschijnduur

Weerstations in de omgeving